Location: *
(2.5500°S, 65.9667°W)
Time: 19:28:15
(UTC+00:00)

FALCONSAT 3 - Visible Passes

Search period start: 26 June 2022 00:00
Search period end: 06 July 2022 00:00
Orbit: 402 x 407 km, 35.4° (Epoch: 26 June)

Date Brightness Start Highest point End Pass type
(mag) Time Alt. Az. Time Alt. Az. Time Alt. Az.
26 Jun ? 23:01:38 10° SW 23:04:57 81° NW 23:08:16 10° NE visible
27 Jun ? 23:47:39 10° WNW 23:48:51 11° NW 23:50:03 10° NNW visible
28 Jun ? 09:42:56 10° N 09:45:11 17° NE 09:47:26 10° E visible
28 Jun ? 22:52:31 10° W 22:55:04 20° NW 22:57:36 10° NNE visible
30 Jun ? 09:31:53 10° NW 09:35:08 65° NE 09:38:24 10° ESE visible
01 Jul ? 08:41:45 30° ENE 08:41:45 30° ENE 08:44:13 10° ESE visible
02 Jul ? 09:25:04 29° SSW 09:25:04 29° SSW 09:27:47 10° SSE visible
